Year,Month,Day,Hour,Minute,Value (Times are PST for temperature in C)
2013,09,17,00,00,13.50
2013,09,17,00,01,13.50
2013,09,17,00,02,13.40
2013,09,17,00,03,13.40
2013,09,17,00,04,13.40
2013,09,17,00,05,13.40
2013,09,17,00,06,13.40
2013,09,17,00,07,13.40
2013,09,17,00,08,13.40
2013,09,17,00,09,13.40
2013,09,17,00,10,13.40
2013,09,17,00,11,13.40
2013,09,17,00,12,13.40
2013,09,17,00,13,13.40
2013,09,17,00,14,13.40
2013,09,17,00,15,13.40
2013,09,17,00,16,13.40
2013,09,17,00,17,13.40
2013,09,17,00,18,13.40
2013,09,17,00,19,13.30
2013,09,17,00,20,13.30
2013,09,17,00,21,13.30
2013,09,17,00,22,13.30
2013,09,17,00,23,13.30
2013,09,17,00,24,13.30
2013,09,17,00,25,13.30
2013,09,17,00,26,13.30
2013,09,17,00,27,13.30
2013,09,17,00,28,13.30
2013,09,17,00,29,13.30
2013,09,17,00,30,13.30
2013,09,17,00,31,13.20
2013,09,17,00,32,13.20
2013,09,17,00,33,13.20
2013,09,17,00,34,13.20
2013,09,17,00,35,13.20
2013,09,17,00,36,13.20
2013,09,17,00,37,13.20
2013,09,17,00,38,13.20
2013,09,17,00,39,13.20
2013,09,17,00,40,13.20
2013,09,17,00,41,13.20
2013,09,17,00,42,13.20
2013,09,17,00,43,13.20
2013,09,17,00,44,13.20
2013,09,17,00,45,13.10
2013,09,17,00,46,13.20
2013,09,17,00,47,13.10
2013,09,17,00,48,13.10
2013,09,17,00,49,13.10
2013,09,17,00,50,13.10
2013,09,17,00,51,13.10
2013,09,17,00,52,13.10
2013,09,17,00,53,13.10
2013,09,17,00,54,13.10
2013,09,17,00,55,13.10
2013,09,17,00,56,13.10
2013,09,17,00,57,13.10
2013,09,17,00,58,13.00
2013,09,17,00,59,13.00
2013,09,17,01,00,13.00
2013,09,17,01,01,13.00
2013,09,17,01,02,13.00
2013,09,17,01,03,13.00
2013,09,17,01,04,13.00
2013,09,17,01,05,13.00
2013,09,17,01,06,13.00
2013,09,17,01,07,13.00
2013,09,17,01,08,13.00
2013,09,17,01,09,13.00
2013,09,17,01,10,13.00
2013,09,17,01,11,13.00
2013,09,17,01,12,13.00
2013,09,17,01,13,13.00
2013,09,17,01,14,13.00
2013,09,17,01,15,13.00
2013,09,17,01,16,13.00
2013,09,17,01,17,13.00
2013,09,17,01,18,12.90
2013,09,17,01,19,12.90
2013,09,17,01,20,12.90
2013,09,17,01,21,12.90
2013,09,17,01,22,12.90
2013,09,17,01,23,12.90
2013,09,17,01,24,12.90
2013,09,17,01,25,12.90
2013,09,17,01,26,12.90
2013,09,17,01,27,12.90
2013,09,17,01,28,12.90
2013,09,17,01,29,12.90
2013,09,17,01,30,12.90
2013,09,17,01,31,12.90
2013,09,17,01,32,12.80
2013,09,17,01,33,12.80
2013,09,17,01,34,12.80
2013,09,17,01,35,12.80
2013,09,17,01,36,12.80
2013,09,17,01,37,12.80
2013,09,17,01,38,12.80
2013,09,17,01,39,12.80
2013,09,17,01,40,12.70
2013,09,17,01,41,12.70
2013,09,17,01,42,12.70
2013,09,17,01,43,12.70
2013,09,17,01,44,12.70
2013,09,17,01,45,12.70
2013,09,17,01,46,12.60
2013,09,17,01,47,12.60
2013,09,17,01,48,12.60
2013,09,17,01,49,12.60
2013,09,17,01,50,12.60
2013,09,17,01,51,12.50
2013,09,17,01,52,12.50
2013,09,17,01,53,12.50
2013,09,17,01,54,12.40
2013,09,17,01,55,12.40
2013,09,17,01,56,12.40
2013,09,17,01,57,12.40
2013,09,17,01,58,12.30
2013,09,17,01,59,12.30
2013,09,17,02,00,12.30
2013,09,17,02,01,12.30
2013,09,17,02,02,12.30
2013,09,17,02,03,12.30
2013,09,17,02,04,12.20
2013,09,17,02,05,12.20
2013,09,17,02,06,12.20
2013,09,17,02,07,12.20
2013,09,17,02,08,12.20
2013,09,17,02,09,12.10
2013,09,17,02,10,12.10
2013,09,17,02,11,12.10
2013,09,17,02,12,12.10
2013,09,17,02,13,12.00
2013,09,17,02,14,12.00
2013,09,17,02,15,12.00
2013,09,17,02,16,12.00
2013,09,17,02,17,11.90
2013,09,17,02,18,11.90
2013,09,17,02,19,11.90
2013,09,17,02,20,11.90
2013,09,17,02,21,11.90
2013,09,17,02,22,11.80
2013,09,17,02,23,11.80
2013,09,17,02,24,11.80
2013,09,17,02,25,11.80
2013,09,17,02,26,11.80
2013,09,17,02,27,11.80
2013,09,17,02,28,11.80
2013,09,17,02,29,11.80
2013,09,17,02,30,11.70
2013,09,17,02,31,11.70
2013,09,17,02,32,11.70
2013,09,17,02,33,11.70
2013,09,17,02,34,11.70
2013,09,17,02,35,11.70
2013,09,17,02,36,11.70
2013,09,17,02,37,11.70
2013,09,17,02,38,11.70
2013,09,17,02,39,11.70
2013,09,17,02,40,11.70
2013,09,17,02,41,11.60
2013,09,17,02,42,11.60
2013,09,17,02,43,11.60
2013,09,17,02,44,11.60
2013,09,17,02,45,11.60
2013,09,17,02,46,11.50
2013,09,17,02,47,11.50
2013,09,17,02,48,11.50
2013,09,17,02,49,11.50
2013,09,17,02,50,11.40
2013,09,17,02,51,11.40
2013,09,17,02,52,11.40
2013,09,17,02,53,11.40
2013,09,17,02,54,11.40
2013,09,17,02,55,11.40
2013,09,17,02,56,11.30
2013,09,17,02,57,11.30
2013,09,17,02,58,11.30
2013,09,17,02,59,11.30
2013,09,17,03,00,11.30
2013,09,17,03,01,11.20
2013,09,17,03,02,11.20
2013,09,17,03,03,11.20
2013,09,17,03,04,11.20
2013,09,17,03,05,11.20
2013,09,17,03,06,11.10
2013,09,17,03,07,11.10
2013,09,17,03,08,11.10
2013,09,17,03,09,11.10
2013,09,17,03,10,11.10
2013,09,17,03,11,11.10
2013,09,17,03,12,11.00
2013,09,17,03,13,11.00
2013,09,17,03,14,11.00
2013,09,17,03,15,11.00
2013,09,17,03,16,11.00
2013,09,17,03,17,10.90
2013,09,17,03,18,10.90
2013,09,17,03,19,10.90
2013,09,17,03,20,10.90
2013,09,17,03,21,10.90
2013,09,17,03,22,10.90
2013,09,17,03,23,10.90
2013,09,17,03,24,10.90
2013,09,17,03,25,10.90
2013,09,17,03,26,10.90
2013,09,17,03,27,10.90
2013,09,17,03,28,10.90
2013,09,17,03,29,10.90
2013,09,17,03,30,10.80
2013,09,17,03,31,10.80
2013,09,17,03,32,10.80
2013,09,17,03,33,10.80
2013,09,17,03,34,10.80
2013,09,17,03,35,10.80
2013,09,17,03,36,10.70
2013,09,17,03,37,10.70
2013,09,17,03,38,10.70
2013,09,17,03,39,10.70
2013,09,17,03,40,10.70
2013,09,17,03,41,10.70
2013,09,17,03,42,10.70
2013,09,17,03,43,10.60
2013,09,17,03,44,10.60
2013,09,17,03,45,10.60
2013,09,17,03,46,10.60
2013,09,17,03,47,10.60
2013,09,17,03,48,10.60
2013,09,17,03,49,10.60
2013,09,17,03,50,10.60
2013,09,17,03,51,10.60
2013,09,17,03,52,10.60
2013,09,17,03,53,10.50
2013,09,17,03,54,10.50
2013,09,17,03,55,10.50
2013,09,17,03,56,10.50
2013,09,17,03,57,10.50
2013,09,17,03,58,10.50
2013,09,17,03,59,10.50
2013,09,17,04,00,10.50
2013,09,17,04,01,10.50
2013,09,17,04,02,10.50
2013,09,17,04,03,10.50
2013,09,17,04,04,10.50
2013,09,17,04,05,10.50
2013,09,17,04,06,10.50
2013,09,17,04,07,10.50
2013,09,17,04,08,10.50
2013,09,17,04,09,10.50
2013,09,17,04,10,10.50
2013,09,17,04,11,10.50
2013,09,17,04,12,10.40
2013,09,17,04,13,10.40
2013,09,17,04,14,10.40
2013,09,17,04,15,10.40
2013,09,17,04,16,10.40
2013,09,17,04,17,10.40
2013,09,17,04,18,10.40
2013,09,17,04,19,10.40
2013,09,17,04,20,10.40
2013,09,17,04,21,10.30
2013,09,17,04,22,10.30
2013,09,17,04,23,10.30
2013,09,17,04,24,10.30
2013,09,17,04,25,10.30
2013,09,17,04,26,10.30
2013,09,17,04,27,10.30
2013,09,17,04,28,10.30
2013,09,17,04,29,10.30
2013,09,17,04,30,10.30
2013,09,17,04,31,10.30
2013,09,17,04,32,10.20
2013,09,17,04,33,10.20
2013,09,17,04,34,10.20
2013,09,17,04,35,10.20
2013,09,17,04,36,10.20
2013,09,17,04,37,10.20
2013,09,17,04,38,10.20
2013,09,17,04,39,10.20
2013,09,17,04,40,10.10
2013,09,17,04,41,10.10
2013,09,17,04,42,10.10
2013,09,17,04,43,10.10
2013,09,17,04,44,10.10
2013,09,17,04,45,10.10
2013,09,17,04,46,10.00
2013,09,17,04,47,10.00
2013,09,17,04,48,10.00
2013,09,17,04,49,10.00
2013,09,17,04,50,10.00
2013,09,17,04,51,9.90
2013,09,17,04,52,9.90
2013,09,17,04,53,9.90
2013,09,17,04,54,9.90
2013,09,17,04,55,9.90
2013,09,17,04,56,9.90
2013,09,17,04,57,9.90
2013,09,17,04,58,9.80
2013,09,17,04,59,9.80
2013,09,17,05,00,9.80
2013,09,17,05,01,9.80
2013,09,17,05,02,9.80
2013,09,17,05,03,9.80
2013,09,17,05,04,9.80
2013,09,17,05,05,9.80
2013,09,17,05,06,9.80
2013,09,17,05,07,9.80
2013,09,17,05,08,9.80
2013,09,17,05,09,9.80
2013,09,17,05,10,9.80
2013,09,17,05,11,9.70
2013,09,17,05,12,9.70
2013,09,17,05,13,9.70
2013,09,17,05,14,9.70
2013,09,17,05,15,9.70
2013,09,17,05,16,9.70
2013,09,17,05,17,9.70
2013,09,17,05,18,9.70
2013,09,17,05,19,9.70
2013,09,17,05,20,9.70
2013,09,17,05,21,9.70
2013,09,17,05,22,9.60
2013,09,17,05,23,9.60
2013,09,17,05,24,9.60
2013,09,17,05,25,9.60
2013,09,17,05,26,9.60
2013,09,17,05,27,9.60
2013,09,17,05,28,9.60
2013,09,17,05,29,9.60
2013,09,17,05,30,9.50
2013,09,17,05,31,9.50
2013,09,17,05,32,9.50
2013,09,17,05,33,9.50
2013,09,17,05,34,9.50
2013,09,17,05,35,9.40
2013,09,17,05,36,9.40
2013,09,17,05,37,9.40
2013,09,17,05,38,9.40
2013,09,17,05,39,9.40
2013,09,17,05,40,9.40
2013,09,17,05,41,9.40
2013,09,17,05,42,9.40
2013,09,17,05,43,9.40
2013,09,17,05,44,9.40
2013,09,17,05,45,9.40
2013,09,17,05,46,9.40
2013,09,17,05,47,9.40
2013,09,17,05,48,9.40
2013,09,17,05,49,9.40
2013,09,17,05,50,9.40
2013,09,17,05,51,9.40
2013,09,17,05,52,9.40
2013,09,17,05,53,9.40
2013,09,17,05,54,9.40
2013,09,17,05,55,9.40
2013,09,17,05,56,9.40
2013,09,17,05,57,9.40
2013,09,17,05,58,9.40
2013,09,17,05,59,9.40
2013,09,17,06,00,9.40
2013,09,17,06,01,9.40
2013,09,17,06,02,9.40
2013,09,17,06,03,9.40
2013,09,17,06,04,9.40
2013,09,17,06,05,9.40
2013,09,17,06,06,9.40
2013,09,17,06,07,9.40
2013,09,17,06,08,9.40
2013,09,17,06,09,9.40
2013,09,17,06,10,9.40
2013,09,17,06,11,9.40
2013,09,17,06,12,9.40
2013,09,17,06,13,9.40
2013,09,17,06,14,9.40
2013,09,17,06,15,9.40
2013,09,17,06,16,9.40
2013,09,17,06,17,9.40
2013,09,17,06,18,9.30
2013,09,17,06,19,9.30
2013,09,17,06,20,9.30
2013,09,17,06,21,9.30
2013,09,17,06,22,9.30
2013,09,17,06,23,9.30
2013,09,17,06,24,9.30
2013,09,17,06,25,9.30
2013,09,17,06,26,9.30
2013,09,17,06,27,9.30
2013,09,17,06,28,9.30
2013,09,17,06,29,9.30
2013,09,17,06,30,9.30
2013,09,17,06,31,9.30
2013,09,17,06,32,9.30
2013,09,17,06,33,9.30
2013,09,17,06,34,9.30
2013,09,17,06,35,9.30
2013,09,17,06,36,9.20
2013,09,17,06,37,9.20
2013,09,17,06,38,9.20
2013,09,17,06,39,9.20
2013,09,17,06,40,9.20
2013,09,17,06,41,9.20
2013,09,17,06,42,9.20
2013,09,17,06,43,9.20
2013,09,17,06,44,9.20
2013,09,17,06,45,9.20
2013,09,17,06,46,9.10
2013,09,17,06,47,9.10
2013,09,17,06,48,9.10
2013,09,17,06,49,9.10
2013,09,17,06,50,9.10
2013,09,17,06,51,9.00
2013,09,17,06,52,9.00
2013,09,17,06,53,9.00
2013,09,17,06,54,8.90
2013,09,17,06,55,8.90
2013,09,17,06,56,8.90
2013,09,17,06,57,8.90
2013,09,17,06,58,8.90
2013,09,17,06,59,8.90
2013,09,17,07,00,8.90
2013,09,17,07,01,8.90
2013,09,17,07,02,8.90
2013,09,17,07,03,8.80
2013,09,17,07,04,8.80
2013,09,17,07,05,8.80
2013,09,17,07,06,8.80
2013,09,17,07,07,8.80
2013,09,17,07,08,8.80
2013,09,17,07,09,8.80
2013,09,17,07,10,8.80
2013,09,17,07,11,8.80
2013,09,17,07,12,8.80
2013,09,17,07,13,8.80
2013,09,17,07,14,8.80
2013,09,17,07,15,8.80
2013,09,17,07,16,8.80
2013,09,17,07,17,8.80
2013,09,17,07,18,8.80
2013,09,17,07,19,8.80
2013,09,17,07,20,8.80
2013,09,17,07,21,8.80
2013,09,17,07,22,8.80
2013,09,17,07,23,8.80
2013,09,17,07,24,8.80
2013,09,17,07,25,8.80
2013,09,17,07,26,8.80
2013,09,17,07,27,8.80
2013,09,17,07,28,8.80
2013,09,17,07,29,8.80
2013,09,17,07,30,8.80
2013,09,17,07,31,8.80
2013,09,17,07,32,8.80
2013,09,17,07,33,8.80
2013,09,17,07,34,8.80
2013,09,17,07,35,8.80
2013,09,17,07,36,8.80
2013,09,17,07,37,8.80
2013,09,17,07,38,8.80
2013,09,17,07,39,8.90
2013,09,17,07,40,8.90
2013,09,17,07,41,8.90
2013,09,17,07,42,8.90
2013,09,17,07,43,8.90
2013,09,17,07,44,8.90
2013,09,17,07,45,8.90
2013,09,17,07,46,8.90
2013,09,17,07,47,8.90
2013,09,17,07,48,9.00
2013,09,17,07,49,9.00
2013,09,17,07,50,9.00
2013,09,17,07,51,9.00
2013,09,17,07,52,9.00
2013,09,17,07,53,9.10
2013,09,17,07,54,9.10
2013,09,17,07,55,9.10
2013,09,17,07,56,9.10
2013,09,17,07,57,9.10
2013,09,17,07,58,9.10
2013,09,17,07,59,9.20
2013,09,17,08,00,9.20
2013,09,17,08,01,9.20
2013,09,17,08,02,9.20
2013,09,17,08,03,9.30
2013,09,17,08,04,9.30
2013,09,17,08,05,9.30
2013,09,17,08,06,9.30
2013,09,17,08,07,9.30
2013,09,17,08,08,9.30
2013,09,17,08,09,9.40
2013,09,17,08,10,9.40
2013,09,17,08,11,9.50
2013,09,17,08,12,9.50
2013,09,17,08,13,9.50
2013,09,17,08,14,9.60
2013,09,17,08,15,9.60
2013,09,17,08,16,9.70
2013,09,17,08,17,9.70
2013,09,17,08,18,9.70
2013,09,17,08,19,9.80
2013,09,17,08,20,9.80
2013,09,17,08,21,9.80
2013,09,17,08,22,9.90
2013,09,17,08,23,9.90
2013,09,17,08,24,9.90
2013,09,17,08,25,10.00
2013,09,17,08,26,10.00
2013,09,17,08,27,10.10
2013,09,17,08,28,10.10
2013,09,17,08,29,10.10
2013,09,17,08,30,10.20
2013,09,17,08,31,10.20
2013,09,17,08,32,10.20
2013,09,17,08,33,10.20
2013,09,17,08,34,10.30
2013,09,17,08,35,10.30
2013,09,17,08,36,10.30
2013,09,17,08,37,10.40
2013,09,17,08,38,10.40
2013,09,17,08,39,10.50
2013,09,17,08,40,10.50
2013,09,17,08,41,10.60
2013,09,17,08,42,10.70
2013,09,17,08,43,10.70
2013,09,17,08,44,10.80
2013,09,17,08,45,10.90
2013,09,17,08,46,11.00
2013,09,17,08,47,11.00
2013,09,17,08,48,11.10
2013,09,17,08,49,11.20
2013,09,17,08,50,11.20
2013,09,17,08,51,11.30
2013,09,17,08,52,11.30
2013,09,17,08,53,11.30
2013,09,17,08,54,11.40
2013,09,17,08,55,11.40
2013,09,17,08,56,11.40
2013,09,17,08,57,11.40
2013,09,17,08,58,11.50
2013,09,17,08,59,11.50
2013,09,17,09,00,11.50
2013,09,17,09,01,11.50
2013,09,17,09,02,11.60
2013,09,17,09,03,11.60
2013,09,17,09,04,11.70
2013,09,17,09,05,11.70
2013,09,17,09,06,11.80
2013,09,17,09,07,11.80
2013,09,17,09,08,11.80
2013,09,17,09,09,11.90
2013,09,17,09,10,11.90
2013,09,17,09,11,11.90
2013,09,17,09,12,12.00
2013,09,17,09,13,12.00
2013,09,17,09,14,12.10
2013,09,17,09,15,12.20
2013,09,17,09,16,12.30
2013,09,17,09,17,12.30
2013,09,17,09,18,12.40
2013,09,17,09,19,12.50
2013,09,17,09,20,12.60
2013,09,17,09,21,12.70
2013,09,17,09,22,12.70
2013,09,17,09,23,12.80
2013,09,17,09,24,12.80
2013,09,17,09,25,12.80
2013,09,17,09,26,12.90
2013,09,17,09,27,12.90
2013,09,17,09,28,12.90
2013,09,17,09,29,13.00
2013,09,17,09,30,13.10
2013,09,17,09,31,13.10
2013,09,17,09,32,13.20
2013,09,17,09,33,13.30
2013,09,17,09,34,13.30
2013,09,17,09,35,13.40
2013,09,17,09,36,13.40
2013,09,17,09,37,13.50
2013,09,17,09,38,13.50
2013,09,17,09,39,13.50
2013,09,17,09,40,13.60
2013,09,17,09,41,13.60
2013,09,17,09,42,13.70
2013,09,17,09,43,13.80
2013,09,17,09,44,13.90
2013,09,17,09,45,13.90
2013,09,17,09,46,13.90
2013,09,17,09,47,13.90
2013,09,17,09,48,13.90
2013,09,17,09,49,13.90
2013,09,17,09,50,13.90
2013,09,17,09,51,13.80
2013,09,17,09,52,13.80
2013,09,17,09,53,13.80
2013,09,17,09,54,13.80
2013,09,17,09,55,13.80
2013,09,17,09,56,13.90
2013,09,17,09,57,13.90
2013,09,17,09,58,13.90
2013,09,17,09,59,14.00
2013,09,17,10,00,14.10
2013,09,17,10,01,14.10
2013,09,17,10,02,14.20
2013,09,17,10,03,14.20
2013,09,17,10,04,14.30
2013,09,17,10,05,14.30
2013,09,17,10,06,14.40
2013,09,17,10,07,14.40
2013,09,17,10,08,14.50
2013,09,17,10,09,14.60
2013,09,17,10,10,14.70
2013,09,17,10,11,14.70
2013,09,17,10,12,14.80
2013,09,17,10,13,14.90
2013,09,17,10,14,15.00
2013,09,17,10,15,15.10
2013,09,17,10,16,15.20
2013,09,17,10,17,15.30
2013,09,17,10,18,15.40
2013,09,17,10,19,15.50
2013,09,17,10,20,15.60
2013,09,17,10,21,15.70
2013,09,17,10,22,15.80
2013,09,17,10,23,15.80
2013,09,17,10,24,15.80
2013,09,17,10,25,15.90
2013,09,17,10,26,16.00
2013,09,17,10,27,16.00
2013,09,17,10,28,16.10
2013,09,17,10,29,16.10
2013,09,17,10,30,16.10
2013,09,17,10,31,16.00
2013,09,17,10,32,15.90
2013,09,17,10,33,15.80
2013,09,17,10,34,15.70
2013,09,17,10,35,15.60
2013,09,17,10,36,15.50
2013,09,17,10,37,15.40
2013,09,17,10,38,15.20
2013,09,17,10,39,15.00
2013,09,17,10,40,14.90
2013,09,17,10,41,14.80
2013,09,17,10,42,14.80
2013,09,17,10,43,14.70
2013,09,17,10,44,14.70
2013,09,17,10,45,14.70
2013,09,17,10,46,14.70
2013,09,17,10,47,14.70
2013,09,17,10,48,14.70
2013,09,17,10,49,14.70
2013,09,17,10,50,14.70
2013,09,17,10,51,14.70
2013,09,17,10,52,14.80
2013,09,17,10,53,14.80
2013,09,17,10,54,14.80
2013,09,17,10,55,14.80
2013,09,17,10,56,14.80
2013,09,17,10,57,14.90
2013,09,17,10,58,14.90
2013,09,17,10,59,15.00
2013,09,17,11,00,15.00
2013,09,17,11,01,15.10
2013,09,17,11,02,15.20
2013,09,17,11,03,15.20
2013,09,17,11,04,15.20
2013,09,17,11,05,15.30
2013,09,17,11,06,15.30
2013,09,17,11,07,15.40
2013,09,17,11,08,15.50
2013,09,17,11,09,15.50
2013,09,17,11,10,15.60
2013,09,17,11,11,15.70
2013,09,17,11,12,15.80
2013,09,17,11,13,15.80
2013,09,17,11,14,15.80
2013,09,17,11,15,15.80
2013,09,17,11,16,15.80
2013,09,17,11,17,15.80
2013,09,17,11,18,15.80
2013,09,17,11,19,15.80
2013,09,17,11,20,15.70
2013,09,17,11,21,15.70
2013,09,17,11,22,15.70
2013,09,17,11,23,15.70
2013,09,17,11,24,15.70
2013,09,17,11,25,15.70
2013,09,17,11,26,15.70
2013,09,17,11,27,15.70
2013,09,17,11,28,15.70
2013,09,17,11,29,15.80
2013,09,17,11,30,15.80
2013,09,17,11,31,15.90
2013,09,17,11,32,15.90
2013,09,17,11,33,16.00
2013,09,17,11,34,16.00
2013,09,17,11,35,16.10
2013,09,17,11,36,16.10
2013,09,17,11,37,16.20
2013,09,17,11,38,16.20
2013,09,17,11,39,16.20
2013,09,17,11,40,16.20
2013,09,17,11,41,16.20
2013,09,17,11,42,16.20
2013,09,17,11,43,16.20
2013,09,17,11,44,16.20
2013,09,17,11,45,16.20
2013,09,17,11,46,16.20
2013,09,17,11,47,16.20
2013,09,17,11,48,16.20
2013,09,17,11,49,16.20
2013,09,17,11,50,16.30
2013,09,17,11,51,16.30
2013,09,17,11,52,16.30
2013,09,17,11,53,16.40
2013,09,17,11,54,16.40
2013,09,17,11,55,16.40
2013,09,17,11,56,16.40
2013,09,17,11,57,16.40
2013,09,17,11,58,16.40
2013,09,17,11,59,16.40
2013,09,17,12,00,16.40
2013,09,17,12,01,16.40
2013,09,17,12,02,16.40
2013,09,17,12,03,16.40
2013,09,17,12,04,16.40
2013,09,17,12,05,16.40
2013,09,17,12,06,16.50
2013,09,17,12,07,16.50
2013,09,17,12,08,16.50
2013,09,17,12,09,16.50
2013,09,17,12,10,16.40
2013,09,17,12,11,16.40
2013,09,17,12,12,16.40
2013,09,17,12,13,16.40
2013,09,17,12,14,16.50
2013,09,17,12,15,16.50
2013,09,17,12,16,16.50
2013,09,17,12,17,16.40
2013,09,17,12,18,16.40
2013,09,17,12,19,16.40
2013,09,17,12,20,16.30
2013,09,17,12,21,16.10
2013,09,17,12,22,16.10
2013,09,17,12,23,16.00
2013,09,17,12,24,16.00
2013,09,17,12,25,16.00
2013,09,17,12,26,16.00
2013,09,17,12,27,15.90
2013,09,17,12,28,16.00
2013,09,17,12,29,16.00
2013,09,17,12,30,16.00
2013,09,17,12,31,16.00
2013,09,17,12,32,16.10
2013,09,17,12,33,16.10
2013,09,17,12,34,16.20
2013,09,17,12,35,16.20
2013,09,17,12,36,16.30
2013,09,17,12,37,16.30
2013,09,17,12,38,16.30
2013,09,17,12,39,16.30
2013,09,17,12,40,16.40
2013,09,17,12,41,16.40
2013,09,17,12,42,16.40
2013,09,17,12,43,16.40
2013,09,17,12,44,16.40
2013,09,17,12,45,16.30
2013,09,17,12,46,16.30
2013,09,17,12,47,16.30
2013,09,17,12,48,16.30
2013,09,17,12,49,16.30
2013,09,17,12,50,16.30
2013,09,17,12,51,16.30
2013,09,17,12,52,16.30
2013,09,17,12,53,16.30
2013,09,17,12,54,16.40
2013,09,17,12,55,16.40
2013,09,17,12,56,16.50
2013,09,17,12,57,16.50
2013,09,17,12,58,16.50
2013,09,17,12,59,16.50
2013,09,17,13,00,16.60
2013,09,17,13,01,16.60
2013,09,17,13,02,16.60
2013,09,17,13,03,16.60
2013,09,17,13,04,16.60
2013,09,17,13,05,16.60
2013,09,17,13,06,16.60
2013,09,17,13,07,16.60
2013,09,17,13,08,16.60
2013,09,17,13,09,16.70
2013,09,17,13,10,16.70
2013,09,17,13,11,16.70
2013,09,17,13,12,16.80
2013,09,17,13,13,16.80
2013,09,17,13,14,16.80
2013,09,17,13,15,16.80
2013,09,17,13,16,16.80
2013,09,17,13,17,16.70
2013,09,17,13,18,16.70
2013,09,17,13,19,16.80
2013,09,17,13,20,16.80
2013,09,17,13,21,16.80
2013,09,17,13,22,16.90
2013,09,17,13,23,16.90
2013,09,17,13,24,17.00
2013,09,17,13,25,17.10
2013,09,17,13,26,17.10
2013,09,17,13,27,17.10
2013,09,17,13,28,17.10
2013,09,17,13,29,17.10
2013,09,17,13,30,17.10
2013,09,17,13,31,17.20
2013,09,17,13,32,17.20
2013,09,17,13,33,17.20
2013,09,17,13,34,17.20
2013,09,17,13,35,17.20
2013,09,17,13,36,17.20
2013,09,17,13,37,17.20
2013,09,17,13,38,17.20
2013,09,17,13,39,17.10
2013,09,17,13,40,17.10
2013,09,17,13,41,17.10
2013,09,17,13,42,17.10
2013,09,17,13,43,17.00
2013,09,17,13,44,17.00
2013,09,17,13,45,17.10
2013,09,17,13,46,17.10
2013,09,17,13,47,17.20
2013,09,17,13,48,17.30
2013,09,17,13,49,17.30
2013,09,17,13,50,17.40
2013,09,17,13,51,17.50
2013,09,17,13,52,17.60
2013,09,17,13,53,17.70
2013,09,17,13,54,17.70
2013,09,17,13,55,17.70
2013,09,17,13,56,17.80
2013,09,17,13,57,17.80
2013,09,17,13,58,17.80
2013,09,17,13,59,17.80
2013,09,17,14,00,17.90
2013,09,17,14,01,17.90
2013,09,17,14,02,17.90
2013,09,17,14,03,17.90
2013,09,17,14,04,18.00
2013,09,17,14,05,18.00
2013,09,17,14,06,18.00
2013,09,17,14,07,18.00
2013,09,17,14,08,18.00
2013,09,17,14,09,18.00
2013,09,17,14,10,18.00
2013,09,17,14,11,18.00
2013,09,17,14,12,18.00
2013,09,17,14,13,18.00
2013,09,17,14,14,18.00
2013,09,17,14,15,18.00
2013,09,17,14,16,18.00
2013,09,17,14,17,18.10
2013,09,17,14,18,18.20
2013,09,17,14,19,18.20
2013,09,17,14,20,18.20
2013,09,17,14,21,18.20
2013,09,17,14,22,18.30
2013,09,17,14,23,18.30
2013,09,17,14,24,18.30
2013,09,17,14,25,18.30
2013,09,17,14,26,18.30
2013,09,17,14,27,18.30
2013,09,17,14,28,18.40
2013,09,17,14,29,18.40
2013,09,17,14,30,18.40
2013,09,17,14,31,18.40
2013,09,17,14,32,18.40
2013,09,17,14,33,18.40
2013,09,17,14,34,18.40
2013,09,17,14,35,18.40
2013,09,17,14,36,18.40
2013,09,17,14,37,18.40
2013,09,17,14,38,18.40
2013,09,17,14,39,18.40
2013,09,17,14,40,18.50
2013,09,17,14,41,18.50
2013,09,17,14,42,18.50
2013,09,17,14,43,18.50
2013,09,17,14,44,18.50
2013,09,17,14,45,18.50
2013,09,17,14,46,18.50
2013,09,17,14,47,18.50
2013,09,17,14,48,18.50
2013,09,17,14,49,18.40
2013,09,17,14,50,18.40
2013,09,17,14,51,18.40
2013,09,17,14,52,18.40
2013,09,17,14,53,18.40
2013,09,17,14,54,18.40
2013,09,17,14,55,18.40
2013,09,17,14,56,18.40
2013,09,17,14,57,18.40
2013,09,17,14,58,18.40
2013,09,17,14,59,18.40
2013,09,17,15,00,18.40
2013,09,17,15,01,18.40
2013,09,17,15,02,18.30
2013,09,17,15,03,18.30
2013,09,17,15,04,18.30
2013,09,17,15,05,18.30
2013,09,17,15,06,18.30
2013,09,17,15,07,18.30
2013,09,17,15,08,18.40
2013,09,17,15,09,18.40
2013,09,17,15,10,18.40
2013,09,17,15,11,18.50
2013,09,17,15,12,18.50
2013,09,17,15,13,18.60
2013,09,17,15,14,18.60
2013,09,17,15,15,18.60
2013,09,17,15,16,18.60
2013,09,17,15,17,18.70
2013,09,17,15,18,18.70
2013,09,17,15,19,18.70
2013,09,17,15,20,18.80
2013,09,17,15,21,18.80
2013,09,17,15,22,18.80
2013,09,17,15,23,18.80
2013,09,17,15,24,18.90
2013,09,17,15,25,18.90
2013,09,17,15,26,18.90
2013,09,17,15,27,19.00
2013,09,17,15,28,19.00
2013,09,17,15,29,19.00
2013,09,17,15,30,19.00
2013,09,17,15,31,19.10
2013,09,17,15,32,19.10
2013,09,17,15,33,19.00
2013,09,17,15,34,19.00
2013,09,17,15,35,19.00
2013,09,17,15,36,19.00
2013,09,17,15,37,18.90
2013,09,17,15,38,18.90
2013,09,17,15,39,18.90
2013,09,17,15,40,18.90
2013,09,17,15,41,18.80
2013,09,17,15,42,18.80
2013,09,17,15,43,18.80
2013,09,17,15,44,18.80
2013,09,17,15,45,18.80
2013,09,17,15,46,18.80
2013,09,17,15,47,18.70
2013,09,17,15,48,18.70
2013,09,17,15,49,18.70
2013,09,17,15,50,18.70
2013,09,17,15,51,18.70
2013,09,17,15,52,18.70
2013,09,17,15,53,18.70
2013,09,17,15,54,18.70
2013,09,17,15,55,18.60
2013,09,17,15,56,18.60
2013,09,17,15,57,18.60
2013,09,17,15,58,18.50
2013,09,17,15,59,18.50
2013,09,17,16,00,18.50
2013,09,17,16,01,18.40
2013,09,17,16,02,18.40
2013,09,17,16,03,18.40
2013,09,17,16,04,18.30
2013,09,17,16,05,18.30
2013,09,17,16,06,18.30
2013,09,17,16,07,18.30
2013,09,17,16,08,18.30
2013,09,17,16,09,18.30
2013,09,17,16,10,18.30
2013,09,17,16,11,18.30
2013,09,17,16,12,18.30
2013,09,17,16,13,18.30
2013,09,17,16,14,18.30
2013,09,17,16,15,18.30
2013,09,17,16,16,18.30
2013,09,17,16,17,18.30
2013,09,17,16,18,18.30
2013,09,17,16,19,18.30
2013,09,17,16,20,18.30
2013,09,17,16,21,18.30
2013,09,17,16,22,18.30
2013,09,17,16,23,18.40
2013,09,17,16,24,18.40
2013,09,17,16,25,18.40
2013,09,17,16,26,18.40
2013,09,17,16,27,18.40
2013,09,17,16,28,18.40
2013,09,17,16,29,18.40
2013,09,17,16,30,18.40
2013,09,17,16,31,18.40
2013,09,17,16,32,18.40
2013,09,17,16,33,18.50
2013,09,17,16,34,18.50
2013,09,17,16,35,18.50
2013,09,17,16,36,18.50
2013,09,17,16,37,18.50
2013,09,17,16,38,18.50
2013,09,17,16,39,18.50
2013,09,17,16,40,18.50
2013,09,17,16,41,18.50
2013,09,17,16,42,18.50
2013,09,17,16,43,18.50
2013,09,17,16,44,18.40
2013,09,17,16,45,18.40
2013,09,17,16,46,18.40
2013,09,17,16,47,18.40
2013,09,17,16,48,18.40
2013,09,17,16,49,18.30
2013,09,17,16,50,18.30
2013,09,17,16,51,18.30
2013,09,17,16,52,18.30
2013,09,17,16,53,18.30
2013,09,17,16,54,18.30
2013,09,17,16,55,18.30
2013,09,17,16,56,18.30
2013,09,17,16,57,18.30
2013,09,17,16,58,18.20
2013,09,17,16,59,18.20
2013,09,17,17,00,18.20
2013,09,17,17,01,18.10
2013,09,17,17,02,18.20
2013,09,17,17,03,18.10
2013,09,17,17,04,18.10
2013,09,17,17,05,18.10
2013,09,17,17,06,18.00
2013,09,17,17,07,18.00
2013,09,17,17,08,18.00
2013,09,17,17,09,17.90
2013,09,17,17,10,17.90
2013,09,17,17,11,17.90
2013,09,17,17,12,17.90
2013,09,17,17,13,17.90
2013,09,17,17,14,17.90
2013,09,17,17,15,17.90
2013,09,17,17,16,17.90
2013,09,17,17,17,17.90
2013,09,17,17,18,17.90
2013,09,17,17,19,17.90
2013,09,17,17,20,17.90
2013,09,17,17,21,17.90
2013,09,17,17,22,17.80
2013,09,17,17,23,17.80
2013,09,17,17,24,17.80
2013,09,17,17,25,17.80
2013,09,17,17,26,17.90
2013,09,17,17,27,17.80
2013,09,17,17,28,17.80